| time (UTC) | temp F | wind direction | speed MPH | gust MPH | rain 1hr in | rain 24hr in | rain mn in | humidity % | barometer mb |
| 20260507020803 | 56 | 200 | 0.0 | 0.0 | 0.02 | 0.83 | 0.83 | 94 | 1014.4 |
| 20260507015802 | 56 | 200 | 0.0 | 0.0 | 0.02 | 0.83 | 0.83 | 94 | 1014.9 |
| 20260507014302 | 56 | 200 | 0.0 | 0.0 | 0.02 | 0.83 | 0.83 | 94 | 1015.2 |
| 20260507013302 | 56 | 200 | 0.0 | 0.0 | 0.01 | 0.82 | 0.82 | 94 | 1015.1 |
| 20260507011803 | 56 | 200 | 0.0 | 0.0 | 0.00 | 0.81 | 0.81 | 94 | 1014.7 |
| 20260507011303 | 56 | 200 | 0.0 | 0.0 | 0.00 | 0.81 | 0.81 | 93 | 1014.6 |
| 20260507010303 | 56 | 200 | 0.0 | 0.0 | 0.00 | 0.81 | 0.81 | 93 | 1014.4 |
| 20260507005803 | 56 | 200 | 0.0 | 0.0 | 0.00 | 0.81 | 0.81 | 93 | 1014.1 |
| 20260507003803 | 56 | 200 | 0.0 | 0.0 | 0.00 | 0.81 | 0.81 | 92 | 1013.7 |
| 20260507002306 | 56 | 200 | 0.0 | 0.0 | 0.00 | 0.81 | 0.81 | 93 | 1013.6 |
| 20260506235803 | 57 | 200 | 0.0 | 0.0 | 0.00 | 0.81 | 0.81 | 93 | 1013.3 |
| 20260506234803 | 57 | 200 | 0.0 | 0.0 | 0.00 | 0.81 | 0.81 | 93 | 1013.8 |
| 20260506232802 | 57 | 200 | 0.0 | 0.0 | 0.00 | 0.81 | 0.81 | 93 | 1014.3 |
| 20260506231803 | 56 | 200 | 0.0 | 0.0 | 0.00 | 0.81 | 0.81 | 93 | 1014.6 |
| 20260506230802 | 56 | 200 | 0.0 | 0.0 | 0.01 | 0.81 | 0.81 | 93 | 1014.4 |
| 20260506230303 | 56 | 200 | 0.0 | 0.0 | 0.02 | 0.81 | 0.81 | 93 | 1013.9 |
| 20260506225803 | 56 | 200 | 0.0 | 0.0 | 0.02 | 0.81 | 0.81 | 93 | 1014.2 |
| 20260506223803 | 56 | 200 | 0.0 | 0.0 | 0.02 | 0.81 | 0.81 | 93 | 1014.3 |
| 20260506223303 | 56 | 200 | 0.0 | 0.0 | 0.02 | 0.81 | 0.81 | 93 | 1014.6 |
| 20260506222306 | 56 | 200 | 0.0 | 0.0 | 0.02 | 0.81 | 0.81 | 93 | 1014.6 |
| 20260506221303 | 56 | 200 | 0.0 | 0.0 | 0.01 | 0.80 | 0.80 | 92 | 1014.7 |
| 20260506220803 | 56 | 200 | 0.0 | 0.0 | 0.01 | 0.80 | 0.80 | 92 | 1014.9 |
| 20260506215803 | 56 | 200 | 0.0 | 0.0 | 0.00 | 0.79 | 0.79 | 92 | 1014.9 |
| 20260506215306 | 56 | 200 | 0.0 | 0.0 | 0.00 | 0.79 | 0.79 | 92 | 1014.9 |
| 20260506214803 | 56 | 200 | 0.0 | 0.0 | 0.00 | 0.79 | 0.79 | 92 | 1014.8 |
| 20260506214303 | 56 | 200 | 0.0 | 0.0 | 0.00 | 0.79 | 0.79 | 92 | 1014.6 |
| 20260506212306 | 57 | 200 | 0.0 | 0.0 | 0.00 | 0.79 | 0.79 | 91 | 1014.0 |
| 20260506211303 | 57 | 200 | 0.0 | 0.0 | 0.00 | 0.79 | 0.79 | 92 | 1013.5 |
| 20260506210803 | 57 | 200 | 0.0 | 0.0 | 0.00 | 0.79 | 0.79 | 92 | 1013.5 |
| 20260506205802 | 57 | 200 | 0.0 | 0.0 | 0.00 | 0.79 | 0.79 | 92 | 1013.5 |
| 20260506204803 | 57 | 200 | 0.0 | 0.0 | 0.00 | 0.79 | 0.79 | 92 | 1013.7 |
| 20260506204302 | 57 | 200 | 0.0 | 0.0 | 0.00 | 0.79 | 0.79 | 92 | 1013.8 |
| 20260506203803 | 57 | 200 | 0.0 | 0.0 | 0.00 | 0.79 | 0.79 | 91 | 1013.8 |
| 20260506201803 | 57 | 200 | 0.0 | 0.0 | 0.00 | 0.79 | 0.79 | 91 | 1013.9 |
| 20260506201303 | 58 | 200 | 0.0 | 0.0 | 0.00 | 0.79 | 0.79 | 91 | 1013.5 |
| 20260506195306 | 58 | 200 | 0.0 | 0.0 | 0.01 | 0.79 | 0.79 | 92 | 1013.4 |
| 20260506194803 | 58 | 200 | 0.0 | 0.0 | 0.01 | 0.79 | 0.79 | 92 | 1013.4 |
| 20260506194303 | 58 | 200 | 0.0 | 0.0 | 0.02 | 0.79 | 0.79 | 92 | 1013.4 |
| 20260506193803 | 57 | 200 | 0.0 | 0.0 | 0.03 | 0.79 | 0.79 | 92 | 1013.3 |
| 20260506193302 | 57 | 200 | 0.0 | 0.0 | 0.03 | 0.79 | 0.79 | 92 | 1013.7 |
| 20260506192803 | 57 | 200 | 0.0 | 0.0 | 0.03 | 0.79 | 0.79 | 93 | 1013.6 |
| 20260506192305 | 57 | 200 | 0.0 | 0.0 | 0.03 | 0.79 | 0.79 | 93 | 1013.7 |
| 20260506191303 | 57 | 200 | 0.0 | 0.0 | 0.03 | 0.79 | 0.79 | 93 | 1013.8 |
| 20260506190303 | 57 | 200 | 0.0 | 0.0 | 0.03 | 0.79 | 0.79 | 92 | 1013.6 |
| 20260506185803 | 57 | 200 | 0.0 | 0.0 | 0.03 | 0.79 | 0.79 | 92 | 1014.2 |
| 20260506184303 | 57 | 200 | 0.0 | 0.0 | 0.01 | 0.77 | 0.77 | 92 | 1014.5 |
| 20260506183803 | 57 | 200 | 0.0 | 0.0 | 0.00 | 0.76 | 0.76 | 92 | 1014.3 |
| 20260506182306 | 57 | 200 | 0.0 | 0.0 | 0.00 | 0.76 | 0.76 | 92 | 1014.1 |
| 20260506181303 | 57 | 200 | 0.0 | 0.0 | 0.00 | 0.76 | 0.76 | 92 | 1013.7 |
| 20260506180303 | 57 | 200 | 0.0 | 0.0 | 0.00 | 0.76 | 0.76 | 92 | 1013.8 |
| 20260506175306 | 57 | 200 | 0.0 | 0.0 | 0.00 | 0.76 | 0.76 | 92 | 1013.3 |
| 20260506174803 | 57 | 200 | 0.0 | 0.0 | 0.00 | 0.76 | 0.76 | 92 | 1013.3 |
| 20260506174302 | 57 | 200 | 0.0 | 0.0 | 0.00 | 0.76 | 0.76 | 92 | 1013.6 |
| 20260506173303 | 57 | 200 | 0.0 | 0.0 | 0.00 | 0.76 | 0.76 | 92 | 1013.6 |
| 20260506172803 | 57 | 200 | 0.0 | 0.0 | 0.00 | 0.76 | 0.76 | 92 | 1013.8 |
| 20260506171803 | 57 | 200 | 0.0 | 0.0 | 0.00 | 0.76 | 0.76 | 92 | 1013.8 |
| 20260506170802 | 57 | 200 | 0.0 | 0.0 | 0.00 | 0.76 | 0.76 | 92 | 1012.8 |
| 20260506165305 | 57 | 200 | 0.0 | 0.0 | 0.00 | 0.76 | 0.76 | 92 | 1013.9 |
| 20260506164303 | 57 | 200 | 0.0 | 0.0 | 0.00 | 0.76 | 0.76 | 92 | 1014.3 |
| 20260506163803 | 57 | 200 | 0.0 | 0.0 | 0.00 | 0.76 | 0.76 | 92 | 1013.7 |
| 20260506162306 | 57 | 200 | 0.0 | 0.0 | 0.00 | 0.76 | 0.76 | 92 | 1013.5 |
| 20260506161803 | 57 | 200 | 0.0 | 0.0 | 0.00 | 0.76 | 0.76 | 93 | 1013.3 |
| 20260506161302 | 57 | 200 | 0.0 | 0.0 | 0.00 | 0.76 | 0.76 | 92 | 1013.5 |
| 20260506160802 | 56 | 200 | 0.0 | 0.0 | 0.00 | 0.76 | 0.76 | 92 | 1013.6 |
| 20260506155802 | 57 | 200 | 0.0 | 0.0 | 0.00 | 0.76 | 0.76 | 92 | 1013.6 |
| 20260506155305 | 57 | 200 | 0.0 | 0.0 | 0.00 | 0.76 | 0.76 | 92 | 1013.7 |
| 20260506154303 | 57 | 200 | 0.0 | 0.0 | 0.00 | 0.76 | 0.76 | 93 | 1013.6 |
| 20260506153803 | 57 | 200 | 0.0 | 0.0 | 0.00 | 0.76 | 0.76 | 92 | 1013.5 |
| 20260506153302 | 57 | 200 | 0.0 | 0.0 | 0.00 | 0.76 | 0.76 | 92 | 1013.5 |
| 20260506152305 | 57 | 200 | 0.0 | 0.0 | 0.00 | 0.76 | 0.76 | 92 | 1013.3 |
| 20260506151803 | 57 | 200 | 0.0 | 0.0 | 0.00 | 0.76 | 0.76 | 92 | 1013.3 |
| 20260506142803 | 58 | 200 | 0.0 | 0.0 | 0.01 | 0.76 | 0.76 | 93 | 1012.1 |
| 20260506141303 | 58 | 200 | 0.0 | 0.0 | 0.03 | 0.76 | 0.76 | 93 | 1012.0 |
| 20260506140302 | 58 | 200 | 0.0 | 0.0 | 0.08 | 0.76 | 0.76 | 92 | 1011.1 |
| 20260506135802 | 58 | 200 | 0.0 | 0.0 | 0.09 | 0.76 | 0.76 | 92 | 1011.1 |
| 20260506135305 | 58 | 200 | 0.0 | 0.0 | 0.10 | 0.76 | 0.76 | 92 | 1011.1 |
| 20260506134302 | 57 | 200 | 0.0 | 2.0 | 0.11 | 0.76 | 0.76 | 92 | 1011.0 |
| 20260506133802 | 57 | 108 | 0.0 | 0.0 | 0.11 | 0.76 | 0.76 | 92 | 1010.7 |
| 20260506133302 | 57 | 108 | 0.0 | 0.0 | 0.11 | 0.76 | 0.76 | 92 | 1010.9 |
| 20260506132803 | 57 | 108 | 0.0 | 0.0 | 0.10 | 0.75 | 0.75 | 91 | 1011.1 |
| 20260506132305 | 58 | 108 | 0.0 | 2.0 | 0.10 | 0.75 | 0.75 | 91 | 1011.7 |
| 20260506131803 | 58 | 108 | 0.0 | 2.0 | 0.09 | 0.74 | 0.74 | 91 | 1011.8 |
| 20260506130803 | 58 | 277 | 0.0 | 0.0 | 0.05 | 0.70 | 0.70 | 90 | 1012.6 |
| 20260506130304 | 58 | 277 | 0.0 | 0.0 | 0.03 | 0.68 | 0.68 | 90 | 1013.1 |
| 20260506124303 | 60 | 277 | 0.0 | 0.0 | 0.00 | 0.65 | 0.65 | 89 | 1012.4 |
| 20260506123803 | 60 | 277 | 0.0 | 0.0 | 0.00 | 0.65 | 0.65 | 89 | 1012.3 |
| 20260506122305 | 62 | 277 | 0.0 | 0.0 | 0.01 | 0.65 | 0.65 | 87 | 1011.4 |
| 20260506121303 | 64 | 277 | 0.0 | 1.0 | 0.03 | 0.65 | 0.65 | 88 | 1011.1 |
| 20260506115803 | 66 | 329 | 0.0 | 0.0 | 0.08 | 0.65 | 0.65 | 93 | 1009.7 |
| 20260506115306 | 66 | 329 | 0.0 | 1.0 | 0.10 | 0.65 | 0.65 | 93 | 1009.4 |
| 20260506114803 | 66 | 329 | 0.0 | 3.0 | 0.12 | 0.65 | 0.65 | 92 | 1009.3 |
| 20260506113303 | 66 | 301 | 0.0 | 10.0 | 0.18 | 0.65 | 0.65 | 92 | 1009.5 |
| 20260506112305 | 65 | 202 | 1.0 | 6.0 | 0.20 | 0.64 | 0.64 | 92 | 1008.8 |
| 20260506111802 | 65 | 106 | 0.0 | 3.0 | 0.20 | 0.63 | 0.63 | 92 | 1009.1 |
| 20260506111303 | 66 | 275 | 0.0 | 3.0 | 0.24 | 0.62 | 0.62 | 92 | 1009.2 |
| 20260506110303 | 66 | 15 | 0.0 | 0.0 | 0.38 | 0.60 | 0.60 | 92 | 1009.3 |
| 20260506105305 | 66 | 15 | 0.0 | 0.0 | 0.34 | 0.55 | 0.55 | 92 | 1010.0 |
| 20260506103803 | 66 | 15 | 0.0 | 0.0 | 0.31 | 0.49 | 0.49 | 92 | 1010.1 |
| 20260506100803 | 66 | 339 | 0.0 | 1.0 | 0.18 | 0.26 | 0.26 | 90 | 1009.8 |
| 20260506100303 | 66 | 328 | 0.0 | 0.0 | 0.15 | 0.22 | 0.22 | 90 | 1009.5 |
| 20260506094803 | 66 | 328 | 0.0 | 1.0 | 0.17 | 0.20 | 0.20 | 89 | 1008.8 |
| 20260506094302 | 66 | 68 | 0.0 | 2.0 | 0.18 | 0.19 | 0.19 | 89 | 1008.8 |
| 20260506093802 | 66 | 330 | 0.0 | 2.0 | 0.18 | 0.18 | 0.18 | 88 | 1008.7 |
| 20260506092803 | 66 | 5 | 0.0 | 0.0 | 0.14 | 0.14 | 0.14 | 87 | 1009.1 |
| 20260506091803 | 67 | 5 | 0.0 | 1.0 | 0.08 | 0.08 | 0.08 | 86 | 1009.1 |
| 20260506091303 | 67 | 5 | 0.0 | 1.0 | 0.08 | 0.08 | 0.08 | 85 | 1009.0 |
| 20260506090302 | 68 | 303 | 0.0 | 0.0 | 0.07 | 0.07 | 0.07 | 83 | 1009.1 |
| 20260506085802 | 68 | 303 | 0.0 | 0.0 | 0.05 | 0.05 | 0.05 | 82 | 1009.2 |
| 20260506084803 | 69 | 303 | 0.0 | 0.0 | 0.03 | 0.03 | 0.03 | 79 | 1008.6 |
| 20260506084302 | 70 | 303 | 0.0 | 2.0 | 0.01 | 0.01 | 0.01 | 76 | 1008.6 |
| 20260506082803 | 71 | 19 | 0.0 | 3.0 | 0.00 | 0.00 | 0.00 | 69 | 1008.0 |
| 20260506082305 | 71 | 6 | 0.0 | 3.0 | 0.00 | 0.00 | 0.00 | 69 | 1007.9 |
| 20260506081803 | 71 | 129 | 0.0 | 3.0 | 0.00 | 0.00 | 0.00 | 68 | 1007.8 |
| 20260506080804 | 71 | 0 | 0.0 | 3.0 | 0.00 | 0.00 | 0.00 | 68 | 1007.7 |
| 20260506080303 | 71 | 32 | 0.0 | 3.0 | 0.00 | 0.00 | 0.00 | 67 | 1007.6 |
| 20260506073303 | 71 | 308 | 0.0 | 3.0 | 0.00 | 0.00 | 0.00 | 66 | 1007.8 |
| 20260506072803 | 71 | 293 | 1.0 | 10.0 | 0.00 | 0.00 | 0.00 | 66 | 1007.7 |
| 20260506072305 | 71 | 352 | 0.0 | 10.0 | 0.00 | 0.00 | 0.00 | 66 | 1007.6 |
| 20260506070803 | 71 | 340 | 0.0 | 12.0 | 0.00 | 0.00 | 0.00 | 65 | 1007.7 |
| 20260506060802 | 71 | 349 | 0.0 | 3.0 | 0.00 | 0.00 | 0.00 | 64 | 1008.0 |
| 20260506060303 | 71 | 338 | 0.0 | 3.0 | 0.00 | 0.00 | 0.00 | 64 | 1008.2 |
| 20260506051303 | 71 | 352 | 0.0 | 3.0 | 0.00 | 0.00 | 0.00 | 62 | 1008.7 |
| 20260506044803 | 71 | 29 | 0.0 | 2.0 | 0.00 | 0.00 | 0.00 | 62 | 1008.7 |
| 20260506043803 | 71 | 317 | 0.0 | 3.0 | 0.00 | 0.00 | 0.00 | 62 | 1009.0 |
| 20260506041303 | 71 | 298 | 0.0 | 0.0 | 0.00 | 0.00 | 0.00 | 62 | 1009.2 |
| 20260506040310 | 71 | 298 | 0.0 | 1.0 | 0.00 | 0.00 | 0.00 | 62 | 1009.6 |
| 20260506035803 | 71 | 82 | 0.0 | 0.0 | 0.00 | 0.00 | 0.00 | 62 | 1009.5 |
| 20260506035305 | 71 | 82 | 0.0 | 0.0 | 0.00 | 0.00 | 0.00 | 62 | 1009.5 |
| 20260506034803 | 71 | 82 | 0.0 | 1.0 | 0.00 | 0.00 | 0.00 | 62 | 1009.4 |
| 20260506032802 | 71 | 23 | 0.0 | 0.0 | 0.00 | 0.00 | 0.00 | 62 | 1009.5 |
| 20260506031803 | 71 | 23 | 0.0 | 1.0 | 0.00 | 0.00 | 0.00 | 62 | 1009.6 |
| 20260506031303 | 71 | 341 | 0.0 | 1.0 | 0.00 | 0.00 | 0.00 | 61 | 1009.7 |
| 20260506030302 | 71 | 334 | 0.0 | 1.0 | 0.00 | 0.00 | 0.00 | 61 | 1009.6 |
| 20260506025803 | 71 | 334 | 0.0 | 1.0 | 0.00 | 0.00 | 0.00 | 61 | 1009.7 |
| 20260506024802 | 71 | 328 | 0.0 | 1.0 | 0.00 | 0.00 | 0.00 | 61 | 1009.3 |
| 20260506023803 | 71 | 9 | 0.0 | 1.0 | 0.00 | 0.00 | 0.00 | 61 | 1009.4 |
| 20260506022803 | 72 | 161 | 0.0 | 5.0 | 0.00 | 0.00 | 0.00 | 60 | 1009.5 |
| 20260506021302 | 71 | 26 | 0.0 | 1.0 | 0.00 | 0.00 | 0.00 | 60 | 1009.7 |